sat.trackr.live / text

‹ back to catalog

STARLINK-36624

NORAD 67636 · 2026-020V

PAYLOAD ACTIVE UNKNOWN

§ Identity

Operator
Country
US
Launch date
2026-01-30
Launch site
AFETR
Launch vehicle
Mass (kg)
RCS (m²)

Purposes: comms

External: N2YO · Heavens-Above · Gunter

§ Orbital elements

Epoch: 2026-09-19T22:13:02.665056Z

Period
94.27 min
Inclination
43.0022°
Eccentricity
0.0001394
Mean motion
15.27582164 rev/d
Perigee alt
482.1 km
Apogee alt
484.0 km
Semi-major
6,861.2 km
B*
2.2557e-4
RAAN
122.4656°
Arg perigee
270.4817°
Mean anomaly
89.5874°
Rev number
3,582

§ Raw data

STARLINK-366241 67636U 26020V   26262.92572529  .00005950  00000+0  22557-3 0  99992 67636  43.0022 122.4656 0001394 270.4817  89.5874 15.27582164 35823

JSON: /api/v1/satellites/67636 · /tle

For live sub-satellite position, see the globe view (requires WebGL).

§ Visibility from observer

Set your observer location to see the next 7 days of passes ≥ 10°. The values pass through the URL so the page stays shareable.

No JS? Fill the form by hand. The geolocation button needs JavaScript.